This demonstration page uses our WeatherBlox Daily Observations layout. Learn more.

Hourly Observations for February 9, 2020

Temp ( °F °C ) Dew Point ( °F °C ) Humidity (%) Winds ( mph kmh ) Pressure ( in mb ) Visibility ( mi km ) Precip ( " mm )
12:54 am 00:54 Clear 35 1.7 27 -2.8 72 72 S 12 19 29.88 1012 10 16.0934 0 0
1:54 am 01:54 Clear 36 2.2 28 -2.2 73 73 S 15 24 29.84 1011 10 16.0934 0 0
2:54 am 02:54 Clear 34 1.1 27 -2.8 76 76 S 13 20 29.83 1010 10 16.0934 0 0
3:54 am 03:54 Clear 33 0.6 27 -2.8 78 78 S 9 15 29.81 1009 10 16.0934 0 0
4:54 am 04:54 Clear 31 -0.6 26 -3.3 82 82 S 8 13 29.82 1010 10 16.0934 0 0
5:54 am 05:54 Clear 35 1.7 27 -2.8 72 72 SW 3 6 29.84 1010 10 16.0934 0 0
6:54 am 06:54 Mostly Clear 32 0 26 -3.3 79 79 WNW 7 11 29.88 1012 10 16.0934 0 0
7:54 am 07:54 Sunny 34 1.1 28 -2.2 79 79 NW 9 15 29.9 1012 10 16.0934 0 0
8:54 am 08:54 Mostly Cloudy 37 2.8 28 -2.2 70 70 NNW 23 37 29.93 1013 10 16.0934 0 0
9:54 am 09:54 Cloudy 35 1.7 25 -3.9 67 67 NW 21 33 30 1016 10 16.0934 0 0
10:39 am 10:39 Cloudy 35 1.7 25 -3.9 67 67 NNW 26 43 30.03 1017 10 16.0934 0 0
10:54 am 10:54 Cloudy 35 1.7 24 -4.4 64 64 NNW 21 33 30.01 1016 10 16.0934 0 0
11:01 am 11:01 Cloudy 34 1.1 24 -4.4 67 67 NNW 28 44 30.04 1017 10 16.0934 0 0
11:10 am 11:10 Cloudy 34 1.1 24 -4.4 67 67 NNW 25 41 30.06 1018 10 16.0934 0 0
11:21 am 11:21 Cloudy 34 1.1 24 -4.4 67 67 NNW 26 43 30.07 1018 10 16.0934 0 0
11:54 am 11:54 Cloudy 33 0.6 23 -5 66 66 N 31 50 30.06 1018 10 16.0934 0 0
12:22 pm 12:22 Cloudy 33 0.6 22 -5.6 64 64 NNW 26 43 30.11 1020 10 16.0934 0 0
12:54 pm 12:54 Cloudy 35 1.7 22 -5.6 59 59 NNW 29 46 30.08 1019 10 16.0934 0 0
1:41 pm 13:41 Partly Cloudy 37 2.8 21 -6.1 52 52 N 35 56 30.11 1019 10 16.0934 0 0
1:54 pm 13:54 Partly Cloudy 38 3.3 21 -6.1 51 51 NNW 32 52 30.1 1019 10 16.0934 0 0
2:54 pm 14:54 Mostly Cloudy 37 2.8 22 -5.6 54 54 N 28 44 30.12 1020 10 16.0934 0 0
3:02 pm 15:02 Partly Cloudy 36 2.2 21 -6.1 55 55 N 26 43 30.15 1021 10 16.0934 0 0
3:54 pm 15:54 Mostly Sunny 35 1.7 21 -6.1 57 57 N 22 35 30.15 1021 10 16.0934 0 0
4:54 pm 16:54 Sunny 34 1.1 20 -6.7 56 56 N 23 37 30.16 1021 10 16.0934 0 0
5:54 pm 17:54 Clear 32 0 20 -6.7 61 61 N 13 20 30.19 1022 10 16.0934 0 0
6:54 pm 18:54 Clear 30 -1.1 20 -6.7 66 66 N 13 20 30.22 1023 10 16.0934 0 0
7:54 pm 19:54 Clear 29 -1.7 20 -6.7 69 69 NW 7 11 30.22 1024 10 16.0934 0 0
8:54 pm 20:54 Clear 28 -2.2 19 -7.2 69 69 NW 8 13 30.23 1024 10 16.0934 0 0
9:54 pm 21:54 Clear 24 -4.4 18 -7.8 77 77 NNW 7 11 30.24 1024 10 16.0934 0 0
10:54 pm 22:54 Clear 25 -3.9 18 -7.8 75 75 NNW 5 7 30.24 1024 10 16.0934 0 0
11:54 pm 23:54 Clear 24 -4.4 18 -7.8 77 77 NNW 3 6 30.25 1024 10 16.0934 0 0

Powered by AerisWeather